GW6754 Weather Reports


time (UTC)temp
F
wind
direction
speed
knots
gust
knots
rain 1hr
in
rain 24hr
in
rain mn
in
humidity
%
barometer
mb
20260510044229 76 183 1.7 7.0 0.00 0.00 0.00 76 1011.6
20260510043238 76 159 2.6 8.7 0.00 0.00 0.00 76 1011.4
20260510042226 76 51 1.7 4.3 0.00 0.00 0.00 77 1011.5
20260510041232 76 56 0.9 5.2 0.00 0.00 0.00 76 1011.7
20260510040226 76 101 1.7 6.1 0.00 0.00 0.00 75 1011.8
20260510035233 76 75 2.6 7.8 0.00 0.00 0.00 73 1011.8
20260510034238 76 74 1.7 7.0 0.00 0.00 0.00 71 1011.7
20260510033232 76 59 2.6 7.0 0.00 0.00 0.00 71 1011.5
20260510032239 77 65 0.9 4.3 0.00 0.00 0.00 70 1011.2
20260510031225 77 63 1.7 8.7 0.00 0.00 0.00 71 1010.8
20260510030234 77 197 0.0 0.9 0.00 0.00 0.00 71 1010.4
20260510025245 78 197 0.0 2.6 0.00 0.00 0.00 71 1010.1
20260510024231 78 197 0.9 4.3 0.00 0.00 0.00 70 1010.0
20260510023239 78 185 0.9 7.0 0.00 0.00 0.00 69 1009.9
20260510022228 78 215 1.7 7.0 0.00 0.00 0.00 68 1009.8
20260510021257 77 179 3.5 12.2 0.00 0.00 0.00 69 1009.9
20260510020227 78 167 3.5 6.1 0.00 0.00 0.00 65 1009.8
20260510015234 78 168 2.6 8.7 0.00 0.00 0.00 64 1009.6
20260510014239 79 117 2.6 6.1 0.00 0.00 0.00 66 1009.4
20260510013247 80 104 2.6 7.0 0.00 0.00 0.00 64 1009.4
20260510012258 81 169 1.7 4.3 0.00 0.00 0.00 63 1009.3
20260510011224 82 73 1.7 2.6 0.00 0.00 0.00 61 1009.1
20260510010234 83 57 0.0 1.7 0.00 0.00 0.00 62 1008.9
20260510005242 84 57 1.7 6.1 0.00 0.00 0.00 63 1009.0
20260510004232 84 43 0.0 0.9 0.00 0.00 0.00 72 1009.0
20260510003242 84 43 0.0 1.7 0.00 0.00 0.00 70 1008.8
20260510002229 85 47 0.0 0.0 0.00 0.00 0.00 71 1008.9
20260510001235 85 46 0.0 0.0 0.00 0.00 0.00 70 1008.5
20260510000248 85 46 0.9 1.7 0.00 0.00 0.00 70 1008.3
20260509235253 85 46 0.0 0.0 0.00 0.00 0.00 70 1008.2
20260509234239 85 46 0.9 1.7 0.00 0.00 0.00 71 1008.1
20260509233228 85 46 0.0 0.0 0.00 0.00 0.00 71 1008.5
20260509232240 85 46 0.0 1.7 0.00 0.00 0.00 71 1008.5
20260509231227 85 46 0.0 0.9 0.00 0.00 0.00 71 1008.4
20260509230255 85 46 0.0 0.9 0.00 0.00 0.00 70 1008.2
20260509225241 85 46 0.0 0.0 0.00 0.00 0.00 69 1008.5
20260509224232 85 46 0.0 1.7 0.00 0.00 0.00 70 1008.3
20260509223240 86 46 0.0 1.7 0.00 0.00 0.00 69 1008.0
20260509222228 86 46 0.0 1.7 0.00 0.00 0.00 69 1008.4
20260509221234 86 61 0.0 3.5 0.00 0.00 0.00 69 1008.0
20260509220228 87 13 0.9 2.6 0.00 0.00 0.00 69 1007.9
20260509215235 87 13 0.0 0.9 0.00 0.00 0.00 67 1008.1
20260509214242 87 13 0.9 1.7 0.00 0.00 0.00 66 1008.0
20260509213231 87 11 0.0 1.7 0.00 0.00 0.00 67 1008.1
20260509212241 87 11 0.9 1.7 0.00 0.00 0.00 67 1008.1
20260509211228 88 12 0.0 2.6 0.00 0.00 0.00 68 1008.2
20260509210236 88 29 0.9 3.5 0.00 0.00 0.00 69 1008.1
20260509205225 88 232 0.0 1.7 0.00 0.00 0.00 65 1008.4
20260509204234 88 232 0.9 1.7 0.00 0.00 0.00 63 1008.6
20260509203302 89 233 0.9 2.6 0.00 0.00 0.00 62 1008.7
20260509202229 89 8 0.9 3.5 0.00 0.00 0.00 65 1008.8
20260509201236 89 8 0.9 5.2 0.00 0.00 0.00 67 1008.8
20260509200229 88 33 0.9 2.6 0.00 0.00 0.00 67 1008.9
20260509195237 87 334 0.9 2.6 0.00 0.00 0.00 66 1009.1
20260509194303 87 180 2.6 4.3 0.00 0.00 0.00 69 1009.1
20260509193227 87 158 0.0 2.6 0.00 0.00 0.00 69 1009.4
20260509192234 87 180 0.0 2.6 0.00 0.00 0.00 69 1009.4
20260509191238 88 178 1.7 3.5 0.00 0.00 0.00 66 1009.4
20260509190224 87 177 1.7 5.2 0.00 0.00 0.00 69 1009.6
20260509185229 86 173 0.0 3.5 0.00 0.00 0.00 70 1009.6
20260509184236 86 173 0.9 4.3 0.00 0.00 0.00 71 1009.7
20260509183301 86 233 1.7 4.3 0.00 0.00 0.00 70 1009.8
20260509182242 86 158 0.0 7.0 0.00 0.00 0.00 72 1009.8
20260509181225 86 170 1.7 7.0 0.00 0.00 0.00 73 1009.9
20260509180230 85 179 1.7 4.3 0.00 0.00 0.00 72 1010.1
20260509175239 85 193 3.5 6.1 0.00 0.00 0.00 74 1010.5
20260509174240 84 165 2.6 7.0 0.00 0.00 0.00 76 1010.6
20260509173242 83 245 1.7 6.1 0.00 0.00 0.00 76 1010.8
20260509172227 83 176 1.7 7.0 0.00 0.00 0.00 77 1011.0
20260509171234 83 164 2.6 7.0 0.00 0.00 0.00 77 1011.0
20260509170241 82 212 3.5 6.1 0.00 0.00 0.00 77 1010.8
20260509165244 82 200 0.9 3.5 0.00 0.00 0.00 77 1010.8
20260509164227 82 177 0.0 2.6 0.00 0.00 0.00 79 1010.9
20260509163235 81 25 0.0 1.7 0.00 0.00 0.00 82 1010.8
20260509162259 81 25 0.0 1.7 0.00 0.00 0.00 83 1010.8
20260509161259 79 25 0.0 1.7 0.00 0.00 0.00 85 1011.0
20260509160225 79 25 0.0 1.7 0.00 0.00 0.00 86 1011.1
20260509155230 79 25 0.0 1.7 0.00 0.00 0.00 87 1011.1
20260509154238 78 25 0.0 2.6 0.00 0.00 0.00 88 1011.2
20260509153242 78 113 0.0 0.9 0.00 0.00 0.00 88 1011.1
20260509152225 78 83 0.0 1.7 0.00 0.00 0.00 88 1011.0
20260509151228 78 89 0.9 1.7 0.00 0.00 0.00 89 1010.9
20260509150237 77 89 0.9 3.5 0.00 0.00 0.00 89 1010.8
20260509145243 77 177 0.0 1.7 0.00 0.00 0.00 90 1010.6
20260509144224 77 177 0.0 2.6 0.00 0.00 0.00 91 1010.2
20260509143229 77 178 0.0 0.9 0.00 0.00 0.00 91 1010.1
20260509142237 76 178 0.0 1.7 0.00 0.00 0.00 91 1010.0
20260509141300 76 177 0.0 0.9 0.00 0.00 0.00 92 1009.8
20260509140225 76 178 0.0 3.5 0.00 0.00 0.00 92 1010.0
20260509135229 76 178 0.9 3.5 0.00 0.00 0.00 92 1010.3
20260509134233 76 177 0.9 2.6 0.00 0.00 0.00 93 1010.1
20260509133224 76 178 0.0 3.5 0.00 0.00 0.00 93 1010.5
20260509132232 76 178 1.7 4.3 0.00 0.00 0.00 93 1010.7
20260509131238 76 164 1.7 4.3 0.00 0.00 0.00 93 1010.6
20260509130230 75 165 1.7 3.5 0.00 0.00 0.00 94 1010.9
20260509125239 75 178 0.0 1.7 0.00 0.00 0.00 94 1011.0
20260509124225 75 178 0.9 3.5 0.00 0.00 0.00 94 1010.9
20260509123234 75 102 0.9 1.7 0.00 0.00 0.00 94 1011.0
20260509122226 75 102 0.0 0.9 0.00 0.00 0.00 94 1010.6
20260509121232 75 102 0.0 0.9 0.00 0.00 0.00 94 1010.7
20260509120241 75 102 0.0 0.9 0.00 0.00 0.00 94 1011.1
20260509115229 75 102 0.0 0.0 0.00 0.00 0.00 94 1010.9
20260509114240 75 102 0.0 1.7 0.00 0.00 0.00 94 1010.8
20260509113228 75 160 0.0 0.0 0.00 0.00 0.00 94 1010.8
20260509112236 75 160 0.0 0.9 0.00 0.00 0.00 94 1010.9
20260509111242 75 160 0.0 0.0 0.00 0.00 0.00 94 1010.5
20260509110255 75 160 0.0 0.0 0.00 0.00 0.00 94 1010.2
20260509105242 75 160 0.0 0.0 0.00 0.00 0.00 94 1010.4
20260509104229 75 160 0.9 2.6 0.00 0.00 0.00 94 1010.2
20260509103237 75 156 1.7 4.3 0.00 0.00 0.00 94 1009.9
20260509102249 75 90 1.7 3.5 0.00 0.00 0.00 94 1010.1
20260509101234 75 90 0.0 0.9 0.00 0.00 0.00 94 1010.2
20260509100242 75 90 0.0 0.0 0.00 0.00 0.00 94 1010.1
20260509095229 75 90 0.0 0.0 0.00 0.00 0.00 94 1009.9
20260509094239 75 90 0.0 0.0 0.00 0.00 0.00 94 1009.7
20260509093228 75 90 0.0 0.0 0.00 0.00 0.00 94 1009.7
20260509092236 75 90 0.0 0.0 0.00 0.00 0.00 94 1009.7
20260509091243 75 90 0.0 0.0 0.00 0.00 0.00 94 1009.8
20260509090236 75 90 0.0 0.0 0.00 0.00 0.00 94 1010.0
20260509085224 75 90 0.0 0.0 0.00 0.00 0.00 94 1010.2
20260509084231 75 90 0.0 1.7 0.00 0.00 0.00 94 1010.2
20260509083239 75 90 0.9 1.7 0.00 0.00 0.00 94 1010.1
20260509082232 75 90 0.9 3.5 0.00 0.00 0.00 94 1010.2
20260509081259 75 90 0.9 1.7 0.00 0.00 0.00 94 1010.2
20260509080226 75 90 0.0 0.9 0.00 0.00 0.00 94 1010.1
20260509075234 75 89 0.0 1.7 0.00 0.00 0.00 94 1010.1
20260509074242 75 96 0.9 6.1 0.00 0.00 0.00 94 1009.8
20260509073232 74 177 1.7 6.1 0.00 0.00 0.00 94 1009.7
20260509072239 74 190 0.9 5.2 0.00 0.00 0.00 94 1009.9
20260509071224 74 145 0.9 7.0 0.00 0.00 0.00 94 1009.8
20260509070257 74 159 0.9 4.3 0.00 0.00 0.00 93 1009.6
20260509065244 74 133 2.6 7.0 0.00 0.00 0.00 93 1009.8
20260509064231 74 120 0.9 4.3 0.00 0.00 0.00 93 1010.0
20260509063239 74 161 0.9 4.3 0.00 0.00 0.00 93 1010.1
20260509062231 74 157 0.9 3.5 0.00 0.00 0.00 92 1010.4
20260509061257 75 161 0.9 2.6 0.00 0.00 0.00 92 1010.5
20260509060304 75 108 0.9 4.3 0.00 0.00 0.00 91 1010.6
20260509055231 75 206 0.9 3.5 0.00 0.00 0.00 91 1010.6
20260509054238 75 191 0.9 4.3 0.00 0.00 0.00 91 1010.5
20260509053230 75 164 0.0 3.5 0.00 0.00 0.00 91 1010.6
20260509052238 75 85 0.9 2.6 0.00 0.00 0.00 91 1010.7
20260509051223 75 66 0.0 0.9 0.00 0.00 0.00 91 1010.7
20260509050237 74 67 0.0 2.6 0.00 0.00 0.00 91 1010.7
20260509045226 74 75 0.0 2.6 0.00 0.00 0.00 90 1010.5